sat.trackr.live / text

‹ back to catalog

RASSVET-3 8

NORAD 68367 · 2026-061H

PAYLOAD ACTIVE UNKNOWN

§ Identity

Operator
Country
CIS
Launch date
2026-03-23
Launch site
PLMSC
Launch vehicle
Mass (kg)
RCS (m²)

External: N2YO · Heavens-Above · Gunter

§ Orbital elements

Epoch: 2026-05-25T04:25:34.046976Z

Period
90.88 min
Inclination
82.2960°
Eccentricity
0.0007409
Mean motion
15.84564234 rev/d
Perigee alt
312.6 km
Apogee alt
322.5 km
Semi-major
6,695.7 km
B*
2.9437e-4
RAAN
37.9630°
Arg perigee
176.1964°
Mean anomaly
183.9363°
Rev number
992

§ Raw data

RASSVET-3 81 68367U 26061H   26145.18442184  .00067815  00000+0  29437-3 0  99992 68367  82.2960  37.9630 0007409 176.1964 183.9363 15.84564234  9926

JSON: /api/v1/satellites/68367 · /tle

For live sub-satellite position, see the globe view (requires WebGL).

§ Visibility from observer

Set your observer location to see the next 7 days of passes ≥ 10°. The values pass through the URL so the page stays shareable.

No JS? Fill the form by hand. The geolocation button needs JavaScript.